RH
13 12 13 21 22 16 13 14 30 66 60 52 47 39 32 43 52 35 34 43 59 88 88 88 87 87 78 74 72 68 62 52 49 48 46 36 22 16 22 24 19 25 34
18 14 14 16 24 20 14 13 15 33 66 62 53 45 41 36 44 38 50 66 71 80 86 92 89 87 83 77 70 67 60 50 49 48 42 30 18 20 26 24 25 34 41
26 23 18 17 20 22 16 14 14 19 26 54 59 53 48 35 40 24 59 78 70 77 83 82 81 76 76 71 66 64 55 48 49 44 38 20 20 27 28 36 43 48 48
28 31 23 18 16 20 20 18 15 18 17 22 52 58 51 39 40 42 40 73 75 70 71 69 62 57 58 51 56 55 47 47 45 39 26 21 28 17 23 46 45 40 46
23 30 31 23 18 21 21 21 18 16 15 15 39 60 54 45 42 65 75 72 51 44 40 34 38 43 43 44 47 44 43 44 40 28 23 28 20 23 27 26 39 53 68
22 24 33 29 25 21 22 21 22 21 17 16 20 58 61 54 56 62 70 71 60 54 49 31 32 36 39 40 42 43 39 34 24 27 27 21 28 26 25 37 50 61 76
26 31 28 32 33 29 27 27 26 27 23 18 18 39 65 62 66 54 58 62 42 31 26 26 37 38 40 43 40 34 29 26 30 23 21 27 25 38 53 56 58 57 52
26 38 35 31 33 30 26 26 31 33 30 21 19 26 60 57 43 40 45 51 50 38 36 26 22 25 29 31 30 31 32 33 21 23 25 34 57 62 65 61 51 44 41
34 31 43 31 31 28 23 34 32 34 32 25 20 22 58 59 50 57 58 64 58 54 35 22 13 13 19 27 40 40 32 23 26 27 53 65 68 67 51 48 44 50 45
44 32 41 40 29 26 29 37 36 33 30 28 22 27 56 63 65 61 60 63 60 46 44 39 27 20 33 50 46 32 29 30 45 68 75 75 57 51 54 56 58 54 45
45 47 41 38 34 35 38 38 36 33 30 27 24 38 65 66 67 59 61 60 64 67 60 40 27 45 56 45 33 33 42 72 80 80 79 53 58 57 63 59 51 41 37
44 54 51 36 37 44 43 39 35 33 31 29 36 55 73 71 68 62 60 69 81 73 36 35 54 58 41 37 40 55 88 79 78 71 59 60 62 66 56 46 41 37 30
40 54 53 38 39 41 37 35 32 34 32 36 42 45 72 74 68 65 74 81 90 41 41 64 59 42 40 48 76 90 77 82 70 68 61 68 63 53 45 43 34 26 19
44 49 50 41 33 32 29 28 35 35 47 41 38 64 78 72 76 77 84 99 53 47 73 61 49 46 60 89 86 87 84 74 68 64 70 60 50 48 42 30 21 16 12
67 52 48 41 32 30 32 35 39 48 48 48 67 83 82 82 92 86 100 61 53 73 61 54 55 77 97 90 92 79 76 63 70 68 58 51 50 36 25 17 13 13 14
73 55 46 38 34 35 40 39 38 42 52 72 90 100 97 98 93 98 55 61 62 61 60 59 94 99 95 91 82 69 63 73 64 56 54 47 30 21 16 15 15 15 14
51 48 44 47 46 42 45 45 45 51 94 85 97 96 98 99 91 58 60 57 55 53 77 100 97 98 94 80 62 71 71 65 58 56 37 26 22 17 16 14 14 14 10
55 49 57 58 49 46 48 55 75 92 98 92 90 99 96 89 78 61 50 40 67 96 100 97 100 91 68 65 74 69 62 60 51 32 28 22 18 16 14 13 13 8 4
90 82 69 56 54 64 91 97 96 99 99 98 93 94 95 71 37 33 74 92 100 97 100 100 72 62 74 73 68 62 61 42 32 30 22 20 15 15 14 12 6 4 6
81 90 87 83 89 94 95 94 93 90 93 96 97 76 55 68 93 98 100 98 99 100 82 63 70 76 71 68 66 58 37 33 27 22 21 18 15 14 10 4 4 6 12
99 100 100 100 100 100 99 98 97 96 96 96 95 96 97 100 99 98 99 100 82 64 67 77 72 72 70 67 47 36 33 25 23 20 17 15 13 8 4 5 7 28 67
97 95 96 97 98 98 98 96 93 95 98 98 97 96 93 94 100 98 74 64 69 78 78 75 74 73 60 40 37 31 26 24 22 18 16 15 6 4 5 11 47 61 36
100 99 96 94 94 96 98 100 98 96 94 90 89 93 95 81 54 63 70 81 80 75 76 78 72 49 40 36 29 28 26 24 22 17 14 5 4 5 21 48 34 31 37
95 94 93 89 90 92 92 88 85 86 90 90 75 46 47 72 73 84 84 75 74 75 77 64 45 41 34 28 28 26 23 18 16 13 4 4 5 31 39 30 33 26 22
97 97 95 91 86 88 88 86 82 67 47 42 50 74 73 81 87 80 75 71 75 72 54 43 38 31 27 24 22 18 17 13 11 4 4 6 35 33 30 24 17 17 21
95 99 96 90 84 83 78 66 47 42 44 53 68 78 89 84 80 74 74 75 60 46 39 33 29 26 19 17 16 15 13 10 4 4 6 34 28 24 19 17 16 18 24
Wind_Speed
49 47 41 38 39 40 41 40 43 42 42 39 36 34 35 38 36 36 37 35 37 38 37 35 35 34 34 35 36 37 37 39 39 40 41 45 45 44 47 49 48 47 48
54 52 49 42 40 40 42 38 39 44 44 41 38 35 37 37 37 36 37 35 36 37 39 37 36 37 37 38 39 40 40 41 41 42 45 47 46 48 50 51 50 50 52
48 52 53 46 41 43 43 41 38 42 46 45 40 37 38 37 37 35 34 35 37 37 38 39 40 41 41 42 42 43 43 43 44 46 48 47 47 49 48 49 51 55 57
50 50 53 52 45 42 44 44 37 41 44 45 42 39 38 36 37 34 34 36 36 35 37 38 40 42 43 44 44 45 45 45 47 49 50 49 52 51 47 47 52 55 57
50 51 50 53 47 45 44 44 38 40 44 43 43 41 38 37 37 37 33 34 37 37 38 39 40 41 43 44 46 46 46 47 50 51 50 51 51 51 53 53 54 57 59
52 50 54 53 51 50 46 43 39 40 43 41 42 42 40 39 36 35 35 36 36 37 38 40 40 41 43 45 46 46 47 49 51 51 52 52 52 54 56 60 61 60 58
53 51 54 55 53 49 47 44 40 40 40 40 41 42 41 40 36 34 36 38 38 38 39 40 41 42 44 44 45 47 49 50 51 52 52 53 55 58 61 63 64 64 65
53 49 48 55 55 51 48 45 43 43 41 40 41 40 42 40 35 36 36 37 37 38 39 41 42 43 44 45 46 48 49 51 51 51 53 56 59 62 63 63 65 68 70
53 50 48 50 55 53 49 43 45 45 42 41 42 40 42 41 36 36 36 38 39 40 40 41 42 43 44 45 46 48 51 51 52 54 57 60 62 61 63 67 70 72 72
50 51 48 47 50 51 50 44 43 44 43 42 43 42 43 42 37 37 37 38 40 41 41 41 42 42 42 44 47 49 50 52 54 57 59 60 61 64 68 69 72 71 73
48 50 48 47 48 49 47 45 43 44 44 44 44 42 43 41 38 38 39 40 41 41 41 41 40 40 42 46 47 49 51 54 57 58 59 62 65 67 70 70 71 71 74
47 48 44 42 46 44 47 42 42 45 46 45 43 42 44 40 39 39 40 39 40 41 41 39 39 41 44 46 48 51 53 55 58 60 62 65 67 68 69 70 71 75 79
46 48 44 41 41 40 40 41 43 46 46 45 43 42 41 39 39 39 38 39 40 40 39 39 40 43 45 47 50 53 55 58 60 63 64 66 67 68 69 73 76 80 84
45 46 42 42 38 36 37 40 44 44 45 44 41 40 39 38 39 37 37 39 40 38 38 40 41 44 46 49 51 55 57 60 62 64 65 66 67 69 73 77 81 86 92
40 40 40 41 36 34 37 41 42 42 41 40 39 38 36 35 36 37 38 39 36 37 39 40 42 45 48 51 54 57 59 61 63 64 65 67 69 73 77 83 88 94 99
32 37 38 35 35 36 38 38 39 38 38 38 36 40 34 32 39 38 38 35 35 37 39 41 45 47 50 54 56 59 60 62 62 64 66 69 72 76 82 88 94 102 106
32 34 33 33 34 35 34 33 34 35 34 37 34 31 30 38 35 33 34 34 36 38 40 43 46 50 53 55 57 59 60 61 63 66 68 72 76 83 89 96 102 107 106
29 30 29 29 31 32 30 29 28 29 30 29 28 36 32 30 32 32 32 34 36 39 42 46 48 51 53 55 58 58 60 62 64 68 72 78 84 91 97 102 107 104 86
23 24 25 26 25 23 20 21 21 21 26 34 29 27 29 29 29 30 31 34 37 41 44 48 50 52 54 55 57 59 61 63 67 72 79 83 90 96 103 110 100 77 64
22 20 20 20 21 22 23 24 27 28 25 22 22 24 25 27 28 29 32 36 40 44 46 48 50 52 53 55 58 60 62 66 71 78 83 89 96 103 109 91 72 56 44
27 28 26 26 26 25 24 22 21 20 20 20 22 22 22 25 29 33 36 38 41 43 45 49 49 51 54 56 58 62 66 71 76 81 89 96 104 103 82 67 51 40 38
12 12 15 15 15 14 13 9 8 11 13 16 19 22 26 30 33 34 37 38 40 43 45 47 50 53 54 56 61 66 72 77 81 87 95 102 97 76 62 45 39 40 38
8 9 8 7 7 6 6 9 13 15 18 20 24 27 29 32 33 33 35 38 41 44 46 48 50 52 56 61 66 71 76 81 85 93 100 90 70 56 40 38 37 37 38
8 6 5 5 5 6 8 11 13 17 20 23 25 28 29 29 30 34 37 40 43 46 47 48 50 55 60 65 70 74 78 83 90 97 83 65 51 36 36 36 38 37 37
5 4 5 6 7 8 10 12 14 17 20 24 25 26 27 31 34 35 39 42 44 44 46 50 54 58 64 68 72 77 83 90 95 80 62 46 34 34 36 37 38 35 32
2 3 5 6 7 8 11 14 16 20 23 24 25 28 30 32 35 38 39 40 41 45 49 52 58 63 68 72 76 82 90 93 78 60 43 30 30 32 34 34 34 33 32
Wind_Direction
248 250 248 247 246 246 249 243 241 244 247 252 255 255 259 261 264 259 255 257 257 258 259 258 265 269 273 276 279 283 287 288 291 293 293 293 294 294 294 294 292 290 289
246 248 251 249 244 246 247 247 241 241 244 246 250 256 260 261 263 261 258 262 260 260 259 260 265 270 273 277 279 283 285 287 290 293 294 296 295 295 296 295 293 292 291
249 246 248 248 245 242 245 245 240 239 244 245 247 251 257 260 260 262 257 260 262 262 262 264 266 269 274 277 280 283 284 286 289 292 293 293 292 294 294 293 292 292 292
247 244 243 243 242 241 242 245 243 241 246 249 247 250 253 258 255 258 257 259 262 265 267 267 268 271 273 276 279 281 284 286 290 292 294 294 295 294 291 289 289 290 292
248 243 242 241 238 238 240 241 241 241 247 251 250 251 256 258 256 255 258 260 261 266 268 270 271 273 276 278 280 284 286 289 292 293 294 294 295 295 295 294 294 295 294
247 243 237 237 237 235 238 241 239 241 247 249 251 251 256 260 259 258 258 259 263 267 267 269 272 275 277 280 283 285 288 290 292 293 295 296 296 296 296 296 297 296 293
245 241 237 233 235 235 237 240 239 242 245 246 248 249 255 259 260 261 260 260 263 266 268 270 273 276 279 282 285 287 289 290 292 295 296 297 297 297 298 298 298 298 297
243 239 237 234 235 235 235 238 237 240 241 243 245 247 252 257 259 262 262 263 265 267 270 274 276 278 281 284 287 288 290 292 295 297 297 298 299 300 300 299 298 298 298
239 235 234 231 233 235 235 234 235 238 239 239 241 245 252 256 256 259 262 263 266 269 273 275 278 281 283 285 287 289 292 295 297 298 299 300 301 301 300 301 301 300 300
231 233 230 229 229 234 233 228 231 234 235 236 239 242 248 254 257 260 260 264 267 271 274 279 281 282 284 286 289 292 295 297 299 300 301 301 301 301 302 302 303 304 304
220 227 225 227 225 228 230 227 229 234 236 236 237 242 248 254 257 260 262 265 269 274 279 280 281 283 286 289 292 294 297 299 301 301 301 302 303 303 304 306 306 305 304
209 217 218 222 223 226 229 227 228 232 234 233 234 240 246 253 256 260 264 268 272 278 280 280 283 286 289 291 294 297 299 301 302 302 303 304 305 306 307 307 306 306 306
202 209 208 214 217 219 222 221 224 228 231 233 236 242 250 255 258 262 267 271 276 279 280 282 285 288 290 293 296 299 301 302 303 304 305 307 307 307 307 307 307 307 307
198 203 202 208 211 212 218 217 219 224 229 233 238 245 252 256 262 266 270 273 278 279 281 284 287 290 293 295 299 302 303 303 304 306 307 307 307 308 308 309 309 308 308
199 193 198 206 210 211 214 215 216 220 226 233 241 248 253 259 266 269 273 276 277 280 282 286 290 292 295 299 301 302 303 305 306 307 307 308 309 310 310 310 309 309 309
188 181 193 198 203 206 208 211 216 220 228 237 243 250 257 255 262 270 273 274 277 281 284 289 291 295 299 300 302 303 304 306 306 307 307 309 310 310 310 309 310 310 310
176 177 183 195 201 204 205 211 215 221 230 243 251 259 258 259 267 268 269 274 279 283 288 291 295 299 300 302 302 304 305 306 307 308 310 310 310 311 311 313 312 312 312
164 173 185 193 196 200 202 208 218 229 239 247 248 244 259 262 262 266 272 278 284 288 292 296 298 300 301 302 304 304 306 308 309 310 309 311 312 313 313 313 312 312 309
156 166 177 187 192 197 201 214 223 232 236 239 244 251 256 261 267 274 280 285 289 293 295 298 299 300 302 303 304 306 308 310 310 310 310 311 313 312 312 313 313 312 309
157 163 173 183 193 201 208 215 222 232 240 243 250 255 261 268 274 281 287 291 292 295 297 298 299 302 304 305 307 308 309 310 311 311 312 313 314 314 314 314 315 313 311
171 175 179 187 194 199 206 212 216 222 232 244 252 262 274 280 285 289 291 292 295 296 297 299 302 303 305 307 309 310 310 311 312 313 315 316 316 316 315 316 315 315 313
153 158 169 181 185 191 197 205 233 251 254 267 275 278 283 286 288 290 293 294 295 297 300 303 305 306 308 310 311 312 312 313 314 315 316 316 317 316 317 317 316 315 315
149 153 162 178 188 200 206 217 243 263 272 275 280 283 285 287 290 293 294 296 300 302 304 306 307 309 311 312 312 312 313 314 315 316 317 318 317 319 318 317 317 319 317
178 183 202 213 230 245 255 260 264 270 277 280 283 286 289 292 293 297 301 302 303 304 306 307 309 310 311 312 312 313 314 316 316 317 319 318 319 318 318 319 320 320 320
229 218 231 246 253 258 268 275 276 280 285 290 292 294 294 297 300 301 302 304 305 307 309 311 311 311 312 312 314 317 317 318 318 320 319 318 317 319 322 323 324 326 326
214 280 280 278 273 268 268 278 290 297 299 298 294 295 299 301 302 304 306 308 310 312 313 312 312 313 316 318 318 319 317 318 320 319 318 314 318 323 326 327 328 328 327